Theta_e
284 285 284 283 284 285 286 285 284 284 285 286 286 286 287 287 287 287 287 287 287 287 287 287 287 287 287 288 289 289 290 290 291 292 292 292 293 293 293 293 293 293 293 294 294 294 294 294 294 294 294 294 295 295 295 295 295 296 296 296 296 297 297 297 298 298 298 299 299 299 299 299 299 299 299 299 299 299 299 300 300 300 300 300 300 300
284 284 284 283 284 285 285 285 284 284 284 285 285 286 286 286 286 286 287 287 287 287 287 287 287 287 287 287 288 289 290 290 291 291 292 292 292 292 292 293 293 293 293 293 293 293 294 294 294 294 294 294 294 295 295 295 295 295 295 296 296 296 296 297 297 297 297 297 298 298 298 298 298 298 298 298 299 299 299 299 299 299 299 300 300 300
285 285 285 284 284 284 285 285 285 285 285 285 285 286 286 285 285 285 286 286 287 287 287 287 286 286 286 287 288 289 290 290 291 291 291 292 292 292 292 292 292 292 293 293 293 293 293 294 294 294 294 294 294 294 294 295 295 295 295 295 295 296 296 296 296 296 296 296 297 297 297 297 297 297 298 298 298 298 299 299 299 299 299 299 299 300
284 284 284 284 284 284 285 285 285 285 285 285 286 286 285 285 285 285 286 286 286 286 287 287 287 286 286 287 287 288 289 290 290 291 291 291 291 291 291 292 292 292 292 293 293 293 293 293 293 294 294 294 294 294 294 294 295 295 295 295 295 295 295 295 296 295 295 296 296 296 296 296 296 297 297 297 298 298 298 298 298 298 298 299 299 299
283 284 284 284 284 284 285 285 285 285 285 285 285 285 285 285 285 285 286 286 286 286 286 286 286 286 286 286 287 288 289 290 290 290 290 290 291 291 291 291 291 292 292 292 293 293 293 293 293 293 294 294 294 294 294 294 294 294 294 295 295 295 295 295 295 295 295 295 295 295 295 295 296 296 296 297 297 297 297 297 297 297 298 298 298 299
283 284 284 284 284 284 285 285 285 285 285 285 285 285 285 285 285 285 285 286 286 286 286 286 286 286 286 286 287 288 289 289 289 289 290 290 290 290 291 291 291 291 292 292 292 292 293 293 293 293 293 294 294 294 294 294 294 294 294 294 294 294 294 294 294 294 294 294 294 294 295 295 295 295 295 296 296 296 297 297 297 297 297 298 298 298
283 283 283 283 284 284 285 285 285 285 284 284 284 285 285 285 285 285 285 285 285 285 285 286 286 286 286 287 287 288 288 288 289 289 289 289 289 290 290 290 291 291 291 292 292 292 292 293 293 293 293 293 294 294 294 294 294 294 294 294 293 293 293 293 293 294 293 293 293 293 294 294 294 294 294 295 295 295 296 296 297 297 297 297 298 298
282 282 283 283 283 284 284 285 285 285 285 284 284 284 284 285 285 285 286 286 285 285 285 285 285 286 286 286 287 287 287 287 287 288 288 288 289 289 290 290 290 291 291 291 292 292 292 292 293 293 293 293 293 293 293 293 293 293 293 293 293 293 293 293 293 293 293 293 293 293 293 293 293 293 294 294 294 295 295 295 296 297 297 297 298 298
281 281 282 283 283 283 283 284 285 285 285 284 284 283 283 283 284 284 285 285 285 285 285 284 284 285 285 286 286 287 287 287 287 287 287 288 288 289 289 290 290 291 291 291 291 292 292 292 292 292 292 293 293 293 293 293 292 292 292 292 292 292 292 292 292 292 292 292 292 292 293 293 293 293 293 293 294 294 294 295 295 296 297 297 298 298
281 281 282 283 284 284 283 283 284 285 286 285 284 284 283 283 283 283 283 283 284 284 285 284 284 284 285 285 286 286 287 287 287 288 288 288 288 289 289 289 290 290 290 291 291 291 291 291 292 292 292 292 292 292 292 291 291 291 291 291 291 291 291 291 291 291 291 292 292 292 292 292 293 293 293 293 293 294 294 294 295 296 296 297 298 298
282 282 283 283 284 284 284 283 284 285 286 285 284 284 284 284 283 282 281 281 282 283 284 284 284 284 284 284 285 286 286 286 287 287 288 288 289 289 289 289 289 289 290 290 290 290 291 291 291 291 291 291 291 291 291 291 290 290 290 290 290 290 291 291 291 291 291 291 292 292 292 293 293 293 293 293 294 294 294 294 295 295 296 297 297 298
282 283 283 283 283 283 283 284 284 285 285 284 283 283 283 284 283 282 281 281 281 282 283 284 284 284 284 284 285 285 286 285 285 286 287 287 287 288 287 287 288 288 289 289 289 290 290 290 290 290 290 290 290 290 290 290 290 290 290 290 290 290 290 290 290 291 291 292 292 292 292 293 293 293 293 294 294 294 294 294 295 295 296 296 297 297
283 283 283 283 283 283 283 283 283 284 284 283 282 281 281 283 283 283 282 281 282 282 283 283 284 284 285 285 285 285 285 285 285 285 286 286 286 286 286 286 287 287 287 287 288 288 289 289 289 289 289 289 289 289 289 289 289 289 289 289 289 290 290 290 290 291 291 292 292 292 292 293 293 293 293 294 294 294 294 294 294 295 295 296 296 296
283 283 282 282 282 282 282 282 282 282 282 282 282 282 282 283 283 283 282 281 282 283 283 283 283 283 285 285 286 286 285 285 285 285 285 286 286 287 286 286 286 286 286 286 286 287 288 288 288 288 288 288 288 288 288 288 288 289 289 289 289 290 290 290 291 291 291 292 292 292 292 292 293 293 293 293 294 294 294 294 294 294 295 295 295 296
282 282 282 281 281 282 282 283 283 282 282 283 283 283 283 282 282 282 281 281 282 282 283 282 282 283 284 285 286 286 286 285 285 284 285 285 286 287 287 286 286 286 286 285 285 286 287 287 287 286 287 287 287 287 287 288 288 289 289 289 290 290 290 290 291 291 291 291 292 292 292 292 293 293 293 293 293 294 294 294 294 294 294 294 295 295
283 282 281 281 282 282 283 283 283 283 282 283 283 283 282 282 282 282 281 281 281 282 281 281 281 282 283 285 287 287 286 285 284 284 284 284 286 287 287 286 285 284 285 285 285 285 286 286 286 286 286 286 287 287 287 288 289 289 289 289 290 290 290 290 291 291 291 291 292 292 292 292 292 293 293 293 293 293 293 293 294 294 294 294 294 295
283 283 282 282 282 282 283 283 283 283 282 282 282 282 282 282 282 282 282 282 282 281 281 280 280 280 281 283 286 287 287 285 284 284 283 283 284 286 287 285 284 284 284 284 284 285 285 285 285 285 286 286 287 287 288 288 288 289 289 290 290 290 290 290 290 291 291 291 291 292 292 292 292 292 293 293 293 293 293 293 294 294 294 294 294 294
283 283 283 282 282 282 282 282 282 282 283 282 282 282 282 283 283 283 283 282 281 281 281 281 280 280 280 281 283 286 287 285 284 283 282 282 283 285 286 285 284 283 283 283 284 284 285 285 285 285 286 287 287 288 288 288 289 289 289 289 290 290 290 290 290 291 291 291 291 291 292 292 292 292 292 292 292 293 293 293 293 294 294 294 294 294
283 283 282 282 282 282 282 282 282 282 282 282 282 282 283 283 283 283 283 282 282 281 281 281 281 281 281 281 283 285 287 285 284 282 281 281 282 283 285 284 284 283 283 283 284 284 285 285 286 286 287 287 287 287 288 288 288 289 289 289 289 290 290 290 290 290 291 291 291 291 291 292 292 292 292 292 292 292 293 293 293 293 293 293 294 294
283 283 282 282 282 281 282 282 282 283 283 283 283 283 283 283 282 282 282 282 282 282 282 281 281 281 282 282 284 285 286 285 283 281 280 280 281 282 284 283 283 282 282 283 283 284 284 285 285 286 286 287 287 287 288 288 288 289 289 289 289 289 290 290 290 290 290 291 291 291 291 291 291 291 291 292 292 292 292 292 293 293 293 293 293 293
283 282 283 283 283 282 282 282 283 284 285 285 284 283 282 282 282 282 282 282 282 282 282 282 282 282 282 283 283 284 286 284 282 280 280 280 280 281 283 283 282 282 281 282 283 284 284 285 285 285 286 287 287 288 288 288 288 289 289 289 289 289 289 290 290 290 290 290 291 291 291 291 291 291 291 291 291 292 292 292 292 292 293 293 293 293
283 283 284 285 284 284 283 284 285 286 286 286 284 283 282 282 282 282 282 282 282 282 282 282 283 283 283 283 283 284 285 284 282 281 279 278 279 280 283 283 282 282 281 282 283 284 285 285 285 285 286 287 287 288 288 288 288 289 289 289 289 289 289 289 290 290 290 290 290 290 290 291 291 291 291 291 291 291 292 292 292 292 292 292 293 293
285 285 285 286 286 285 285 285 285 286 286 285 284 283 283 283 282 282 282 283 283 283 283 283 283 283 283 283 284 284 285 284 283 281 279 278 278 280 282 283 282 281 281 282 283 284 284 284 285 285 286 287 287 288 288 288 288 289 289 289 289 289 289 289 289 290 290 290 290 290 290 290 290 291 291 291 291 291 291 291 291 291 292 292 292 292
285 285 285 285 285 285 285 285 285 285 285 285 285 285 285 285 285 285 285 284 284 283 283 282 282 282 282 282 283 283 284 284 283 282 280 278 279 280 282 282 281 281 281 282 283 284 284 284 284 285 286 286 287 288 288 288 288 288 289 289 289 289 289 289 289 289 289 289 290 290 290 290 290 290 290 290 290 290 290 291 291 291 291 291 291 292
285 285 285 286 286 286 286 286 287 287 287 287 287 287 287 286 286 285 285 284 283 283 282 281 280 280 280 281 281 282 283 284 283 282 280 278 279 280 281 282 281 281 281 282 283 284 283 283 284 285 285 286 287 287 288 288 288 288 288 288 288 288 289 289 289 289 289 289 289 289 289 290 290 290 290 290 290 290 290 290 290 290 291 291 291 291
286 286 287 287 288 288 288 289 289 289 289 287 286 286 285 285 285 284 283 283 282 281 280 279 278 278 279 279 280 280 282 283 283 282 280 279 279 279 281 282 281 281 281 282 283 283 283 283 283 284 284 285 286 287 287 287 287 288 288 288 288 288 288 288 288 288 289 289 289 289 289 289 289 289 289 289 290 290 290 290 290 290 290 290 290 291
287 287 287 288 288 288 288 288 288 288 288 287 287 286 285 284 283 282 281 281 281 280 279 278 277 277 278 278 279 280 281 282 282 282 282 280 279 279 280 281 282 281 281 281 282 283 283 283 283 283 284 284 285 286 286 287 287 287 287 287 288 288 288 288 288 288 288 288 288 288 289 289 289 289 289 289 289 290 290 290 290 290 290 290 290 290
286 287 287 287 287 287 287 286 286 287 287 287 287 286 285 283 281 280 279 280 280 280 278 277 277 277 277 277 278 279 280 281 282 283 283 281 279 279 280 281 281 281 280 280 282 282 283 283 283 283 283 284 284 285 286 286 286 287 287 287 287 287 287 287 287 287 288 288 288 288 288 289 289 289 289 289 289 289 289 290 290 290 290 289 288 288
285 285 285 285 285 285 285 285 285 285 285 285 285 285 285 283 281 280 280 280 280 279 278 277 277 277 277 277 278 279 280 281 282 283 283 281 279 279 280 281 281 281 280 280 280 281 281 282 283 283 283 284 284 284 285 285 285 286 286 286 286 286 287 287 287 287 287 287 288 288 288 288 288 289 289 289 289 289 289 289 289 289 288 288 288 287
283 282 282 282 283 283 283 282 282 283 284 284 285 285 284 283 282 281 281 281 280 279 278 277 277 277 277 277 277 277 278 280 282 283 282 280 279 279 280 280 280 280 280 279 278 278 279 281 282 283 283 284 284 284 284 284 284 284 284 285 285 286 286 286 286 287 287 287 287 288 288 288 288 288 288 288 289 289 289 289 288 288 287 287 286 286
280 280 280 280 281 281 281 281 281 282 282 283 283 283 283 283 282 281 281 281 280 279 278 278 277 278 277 277 276 276 277 280 282 283 283 280 279 279 280 279 280 280 281 279 277 276 276 278 281 282 283 283 283 283 283 283 283 283 284 284 284 285 285 286 286 286 286 287 287 287 287 288 288 288 288 288 288 288 288 288 288 287 286 286 285 285
279 279 279 280 280 280 280 280 280 281 281 281 282 282 282 282 282 282 282 281 281 280 279 278 278 278 278 277 276 276 277 279 282 283 283 280 280 280 280 279 279 280 281 279 278 276 275 276 278 280 282 282 282 282 283 283 283 283 283 283 283 284 285 285 286 286 286 286 287 287 287 287 287 287 287 287 288 288 288 288 288 287 286 285 285 285
279 279 279 279 279 279 279 280 280 280 280 280 281 281 281 282 282 282 282 282 281 281 280 279 278 278 278 277 277 277 278 280 282 283 283 281 280 280 280 279 279 279 280 280 279 278 277 277 277 279 280 281 281 282 282 283 283 283 283 283 283 283 284 285 285 285 285 285 286 286 286 286 287 287 287 287 287 287 287 287 287 287 286 285 284 284
279 279 279 279 279 279 279 280 280 280 280 280 281 281 281 282 282 282 282 282 282 281 280 280 279 278 277 277 277 277 278 280 282 283 283 281 280 279 279 279 279 279 279 279 279 278 278 278 278 278 278 280 281 282 282 283 283 284 284 283 283 283 283 284 284 284 284 284 284 284 285 285 286 286 286 286 286 287 287 287 287 287 287 286 285 285
278 278 279 279 279 279 279 280 280 280 280 281 281 281 281 281 281 282 282 282 282 282 281 281 280 279 278 278 277 277 278 280 282 283 283 281 280 279 279 278 278 278 278 278 278 278 277 278 278 278 278 278 279 281 282 282 283 283 284 283 283 283 283 283 283 283 283 283 283 283 284 284 284 285 285 285 286 286 287 287 287 288 288 287 287 286
277 278 278 278 279 279 279 279 280 280 280 280 281 281 281 281 281 281 281 281 281 281 281 281 281 281 280 279 278 278 278 280 282 283 283 282 281 279 278 278 279 278 278 277 277 277 277 277 278 278 278 277 278 279 281 282 283 283 283 283 283 283 283 284 284 283 283 283 283 283 283 283 284 284 284 285 286 286 287 287 287 288 288 288 288 288
277 277 278 279 279 279 279 279 279 279 279 280 280 280 281 281 281 281 281 281 281 281 281 281 281 281 282 281 280 280 280 281 282 283 283 282 281 280 278 279 279 279 278 277 277 277 277 277 277 277 277 277 277 278 279 281 282 282 282 283 283 283 283 284 284 283 283 283 283 283 283 284 284 284 285 285 286 286 287 287 287 287 287 288 288 288
277 277 278 278 279 279 279 279 279 279 279 279 280 280 280 280 280 280 280 281 281 281 281 281 281 281 282 282 282 281 281 282 282 282 282 282 281 280 279 279 279 280 279 279 278 278 277 276 276 276 276 277 278 278 279 280 280 280 281 282 282 283 283 283 284 284 283 283 283 283 284 284 284 284 284 285 285 285 285 285 286 286 287 287 287 287
277 277 278 278 279 279 279 279 279 279 279 280 280 280 280 280 280 280 280 280 280 280 280 280 280 280 281 281 281 282 282 282 281 281 281 281 281 280 279 279 279 279 280 280 279 278 277 277 276 276 276 277 277 278 279 279 279 280 280 281 282 282 283 283 284 284 283 283 283 283 284 284 284 284 284 284 284 284 283 284 284 285 285 285 286 286
277 278 278 278 279 279 279 279 279 279 280 280 280 280 280 280 280 280 280 280 280 280 281 281 281 281 281 281 282 282 282 282 282 282 282 281 281 281 280 279 279 279 280 279 279 279 278 277 277 277 277 277 277 278 278 279 279 280 280 280 280 281 282 283 283 283 283 283 283 283 283 283 283 283 283 284 283 283 283 283 284 284 285 284 284 284
277 277 278 278 279 279 279 279 280 280 280 280 280 279 279 279 279 279 279 280 280 280 280 280 280 281 281 281 281 282 282 282 282 282 282 281 281 281 281 280 280 279 279 279 279 279 278 277 277 277 277 277 277 278 278 279 279 280 280 279 279 280 282 283 283 283 283 283 283 283 283 283 283 283 283 283 284 284 284 284 284 284 284 284 284 283
277 278 278 278 278 279 279 280 280 280 280 279 279 279 278 278 278 278 278 278 279 279 279 279 279 279 279 280 281 281 282 282 282 282 282 281 281 281 281 281 280 280 280 279 279 279 279 278 278 278 278 277 277 277 277 278 279 280 280 280 280 280 281 282 283 283 283 283 283 283 283 283 283 283 283 283 283 284 285 285 285 285 284 284 284 284
277 277 278 278 278 279 279 280 279 279 279 279 278 278 278 279 279 278 278 278 278 278 279 279 279 278 278 278 279 280 282 282 283 283 283 282 282 282 281 281 281 281 280 279 278 278 279 279 279 278 278 278 278 277 277 278 279 280 280 280 280 279 278 280 282 283 283 283 283 283 283 283 283 283 283 283 284 284 284 285 285 285 285 284 284 284
277 277 278 278 279 279 279 279 279 278 278 278 278 278 279 279 279 279 278 278 278 278 278 278 278 278 277 277 278 279 280 282 282 283 283 283 283 283 282 282 282 281 281 279 279 278 278 278 279 279 279 279 279 278 278 278 278 279 279 280 280 279 278 280 281 282 282 282 282 283 283 283 283 283 283 283 283 283 284 284 284 284 285 285 284 284
277 277 278 278 278 278 278 278 278 278 278 277 277 278 278 279 279 279 278 278 278 278 278 278 278 277 277 277 278 278 279 280 281 282 283 283 284 284 283 282 282 282 281 280 280 279 278 278 278 279 280 279 279 278 278 278 278 279 280 280 281 280 280 281 281 281 281 281 282 282 283 283 283 283 282 282 282 283 283 283 283 284 284 284 285 284
277 277 277 277 277 277 277 277 277 277 277 277 277 278 278 279 279 278 278 278 278 278 278 278 277 276 276 276 277 277 278 279 279 280 281 282 283 283 283 283 283 282 282 281 281 280 280 279 279 279 279 279 278 278 278 278 278 279 279 280 280 280 281 281 281 281 281 281 282 282 283 283 283 282 281 281 282 282 283 283 283 284 284 284 285 285
277 277 277 277 277 277 277 277 277 277 277 277 277 278 278 278 278 278 278 278 278 278 278 278 277 276 276 276 276 277 277 277 278 279 280 281 282 282 283 283 283 283 282 282 282 281 281 281 280 280 279 278 277 278 279 279 279 279 279 280 280 280 280 280 281 282 282 282 282 282 283 283 282 281 281 281 281 282 283 284 284 284 284 285 285 285
277 277 276 276 276 276 276 276 276 276 276 276 277 277 278 278 278 278 278 278 278 277 277 277 276 276 276 276 277 277 277 277 278 278 279 280 281 281 282 282 282 283 283 282 282 282 282 282 282 281 280 279 278 278 278 279 280 280 280 280 280 280 279 280 281 282 282 283 283 283 283 282 282 281 281 281 281 282 282 283 284 285 285 285 285 285
277 276 276 276 276 276 276 276 276 276 276 276 276 277 278 278 279 278 278 278 277 277 276 276 276 276 276 276 277 277 277 277 278 278 279 279 280 281 281 281 281 281 281 282 282 282 282 283 283 283 282 281 280 279 279 279 280 281 281 281 280 280 280 281 281 282 283 283 283 283 283 283 283 282 282 281 281 281 282 283 284 284 285 286 286 286
276 276 276 276 276 276 276 276 276 276 276 276 276 277 277 278 278 278 278 277 277 277 276 276 276 276 276 276 277 277 277 277 278 278 279 279 280 280 280 280 280 280 280 280 280 280 281 281 282 283 284 284 283 281 280 280 280 281 281 281 281 281 281 281 282 283 283 283 283 284 284 284 284 283 283 281 281 281 281 282 283 284 285 286 286 286
276 276 276 276 276 276 276 276 276 276 276 276 276 276 276 277 277 277 277 277 277 277 277 277 276 276 276 276 277 277 277 277 277 278 278 279 280 280 280 280 279 279 278 278 278 278 278 278 279 280 283 285 285 284 282 282 281 281 281 282 282 282 282 282 282 283 283 284 284 284 284 284 283 283 283 282 281 281 281 281 282 283 285 285 286 286
Wind_Speed
1 1 1 1 1 1 1 1 2 3 5 5 5 6 6 6 6 7 8 8 8 8 8 8 9 9 10 12 14 15 16 17 17 18 18 18 19 19 19 19 19 19 19 19 19 19 19 19 19 19 19 19 19 19 19 19 19 19 19 19 20 20 20 21 21 21 21 22 22 22 23 23 23 23 23 23 23 24 24 24 25 25 25 25 26 26
1 1 1 1 1 1 2 2 2 3 5 6 6 6 6 7 6 6 6 7 8 8 8 8 9 9 10 11 13 15 16 16 17 18 18 19 19 19 20 20 20 20 20 19 19 19 19 19 19 19 19 19 19 19 19 19 19 19 19 20 20 20 21 21 21 21 22 22 22 23 23 23 23 23 23 23 24 24 24 25 25 25 25 25 26 26
0 0 0 1 1 1 3 3 3 4 5 6 7 7 7 7 6 6 6 7 7 8 8 8 8 9 10 10 12 14 15 16 17 18 19 19 20 20 20 20 20 20 20 19 19 19 19 19 19 19 19 19 19 19 19 19 19 19 20 20 20 21 21 21 21 22 22 22 22 23 23 23 23 23 24 24 24 24 24 25 25 25 25 25 25 26
0 0 0 0 1 2 3 3 4 4 5 6 6 7 7 6 6 6 6 7 7 7 8 8 8 8 8 8 10 12 15 16 18 19 19 20 20 20 20 20 20 20 20 19 19 19 19 19 19 19 19 19 19 19 20 20 20 20 20 20 21 21 21 22 22 22 22 23 23 23 23 23 24 24 24 24 24 24 24 25 25 25 25 25 25 25
0 0 0 1 1 2 3 3 4 4 4 5 5 5 5 5 5 6 6 7 8 8 7 8 8 8 7 7 9 11 15 17 18 19 20 20 20 20 20 20 20 20 20 19 19 19 19 19 19 19 19 20 20 20 20 20 20 21 21 21 21 21 22 22 22 22 22 23 23 23 23 23 23 24 24 24 24 24 24 24 25 25 25 25 25 25
0 0 0 1 2 2 3 3 3 4 4 4 4 5 5 5 6 6 6 7 7 7 7 7 7 7 7 7 9 12 15 17 18 19 19 19 20 20 20 20 19 19 19 19 19 20 20 20 20 20 20 20 20 21 21 21 21 21 22 22 22 22 22 22 22 22 22 22 23 23 23 23 23 23 23 24 24 24 24 24 24 25 25 25 25 25
1 1 0 1 2 3 3 3 3 3 3 4 5 5 5 5 6 6 6 6 6 6 6 6 6 7 7 8 10 12 14 15 16 17 18 18 18 18 18 18 19 19 19 19 20 20 20 20 20 20 20 21 21 21 21 22 22 22 22 22 22 22 22 22 22 22 22 22 22 22 22 22 23 23 23 23 23 24 24 24 24 24 25 25 25 25
2 2 1 2 3 3 3 3 3 3 3 4 5 6 6 5 5 5 6 6 6 6 5 6 6 7 7 8 9 10 10 11 12 13 14 15 15 16 16 17 18 18 19 19 20 20 20 20 20 21 21 21 21 22 22 22 22 22 22 22 22 22 22 22 22 22 22 22 22 22 22 22 22 22 22 23 23 23 23 24 24 24 25 25 25 25
3 3 3 3 3 4 4 3 3 3 3 4 5 6 6 6 5 5 5 5 5 5 5 6 6 7 7 8 8 8 9 9 9 10 11 11 11 13 14 15 17 18 19 19 20 20 20 21 21 21 21 22 22 22 23 23 23 22 22 22 22 22 22 22 22 22 22 22 22 22 22 22 22 22 22 22 22 23 23 23 24 24 25 25 25 25
4 4 4 4 3 4 4 4 4 4 4 5 5 5 5 6 6 6 6 5 5 4 4 6 7 7 8 8 8 8 9 9 11 12 12 12 13 14 15 15 15 16 18 19 20 20 21 21 21 22 22 22 23 23 23 23 22 22 22 22 22 22 22 22 22 22 22 22 22 22 22 22 22 22 22 22 23 23 23 23 24 24 24 25 25 26
3 4 4 4 3 3 3 4 4 4 5 4 4 4 4 4 5 6 7 6 6 5 5 6 6 7 8 8 8 8 8 8 9 10 12 13 14 15 15 15 15 16 18 18 19 20 20 21 21 22 22 22 23 22 22 22 22 21 21 21 21 22 22 22 22 22 22 22 22 22 22 22 22 22 23 23 23 23 23 23 24 24 24 25 25 26
3 3 3 3 3 3 3 3 4 4 4 4 4 4 4 3 4 5 6 7 7 7 6 6 6 7 7 8 8 8 7 7 7 7 8 9 10 10 11 11 12 13 14 15 16 17 19 19 20 20 21 21 21 21 21 21 21 21 21 22 22 22 22 22 22 22 22 22 22 22 22 23 23 23 23 23 23 24 24 24 24 24 24 25 25 26
3 3 3 3 3 3 3 4 4 3 3 3 4 5 4 4 4 4 5 6 7 7 7 7 7 7 7 7 7 7 7 7 7 7 7 7 7 7 7 7 8 9 9 10 11 12 15 17 18 18 19 19 20 20 21 20 21 21 22 22 22 22 22 22 22 22 22 22 23 23 23 23 23 23 23 24 24 24 24 24 24 24 25 25 25 26
3 3 3 4 4 4 4 4 4 4 4 4 4 4 5 5 5 5 5 6 6 6 7 7 7 7 6 7 7 7 6 7 7 7 7 6 6 6 7 7 8 8 8 9 9 10 12 13 13 14 16 17 18 19 19 20 21 21 22 22 22 22 23 23 23 23 23 23 23 23 23 23 24 24 24 24 24 24 24 24 24 25 25 25 25 26
4 4 4 5 5 4 4 4 4 4 4 4 4 5 5 5 5 5 6 6 6 6 7 7 8 7 6 5 5 6 6 6 6 6 7 7 7 7 8 8 8 8 8 9 9 10 11 11 11 11 12 15 16 17 18 19 21 22 22 23 23 23 23 23 23 23 24 24 24 24 24 24 24 24 24 24 24 24 25 25 25 25 25 25 25 26
4 4 5 5 5 5 4 3 4 5 5 5 5 5 5 5 5 5 5 6 6 6 6 7 7 7 5 5 5 5 5 5 6 6 8 8 7 7 8 8 9 9 9 9 9 9 9 9 10 11 12 14 17 19 21 21 22 23 23 23 24 24 24 24 24 24 24 24 24 24 24 24 24 24 24 25 25 25 25 25 25 25 25 25 25 25
4 4 4 5 5 4 4 3 4 5 5 5 5 5 5 5 5 5 5 5 5 5 5 6 6 6 5 4 4 4 4 4 5 6 8 8 8 8 8 8 9 9 9 9 9 9 9 9 9 10 11 14 17 20 21 22 23 23 24 24 24 25 25 25 25 25 25 25 25 25 25 25 25 25 25 25 25 25 25 25 25 25 25 25 25 25
3 3 3 4 4 4 4 4 4 5 5 5 5 5 5 5 5 5 5 6 6 6 6 5 5 5 5 5 4 4 5 5 6 6 7 8 8 8 8 8 8 9 9 9 9 8 9 9 9 10 12 16 19 21 23 23 24 24 24 25 25 25 25 25 25 25 25 25 25 25 25 25 25 25 25 25 25 25 25 25 25 25 25 25 25 25
3 3 3 4 4 4 5 5 5 5 5 4 5 5 5 5 6 6 6 6 6 7 7 6 5 5 6 6 6 6 6 6 7 7 8 9 9 8 8 8 8 8 9 9 9 9 9 9 11 13 16 19 21 22 23 24 24 24 25 25 25 25 25 25 25 26 26 26 26 26 25 25 25 25 25 25 25 25 25 25 25 25 25 25 25 25
4 4 4 4 5 5 5 5 4 4 5 4 5 5 6 6 7 7 7 7 6 6 6 6 6 6 6 7 7 7 7 7 7 7 8 9 9 9 8 7 8 8 9 9 8 8 8 9 10 13 16 19 20 22 23 23 24 24 25 25 25 25 26 26 26 26 26 26 26 26 26 26 26 26 26 26 26 26 26 26 26 25 25 25 25 25
5 5 5 5 5 5 4 4 5 5 6 6 6 7 7 7 7 7 7 6 6 6 5 5 6 6 5 7 8 8 7 7 7 6 6 7 8 8 7 7 7 8 9 9 8 8 8 9 9 10 13 17 20 22 23 24 24 25 25 25 25 26 26 26 26 26 26 26 26 26 26 26 26 26 26 26 26 26 26 26 25 25 25 25 25 25
5 6 6 6 6 5 5 5 6 7 8 8 7 7 7 7 7 7 6 6 5 5 5 6 6 6 7 8 9 9 8 7 6 6 5 6 8 8 6 6 7 8 9 8 8 8 9 9 9 10 13 18 21 22 23 24 24 25 25 25 25 25 25 26 26 26 26 26 26 26 26 26 26 26 26 26 26 25 25 25 25 25 25 25 25 26
5 6 6 6 6 6 6 6 7 7 8 8 8 8 7 6 6 6 5 5 5 6 6 6 7 7 8 9 9 8 7 6 5 5 5 7 8 8 6 6 6 7 8 8 8 8 9 9 9 11 14 18 21 22 23 24 24 25 25 25 25 25 25 25 25 25 26 26 26 26 26 26 26 26 26 26 26 25 25 25 25 25 25 25 25 25
5 6 5 5 5 5 6 6 7 7 7 7 7 7 6 5 5 4 4 5 6 6 7 7 8 8 8 9 8 8 7 5 5 4 4 6 7 7 6 6 7 8 8 8 8 8 9 9 9 10 11 16 19 21 23 24 24 24 25 25 25 25 25 25 25 25 25 25 26 26 26 26 26 26 26 26 26 26 26 25 25 25 25 25 25 25
5 6 5 5 6 7 7 8 8 7 6 5 5 4 5 6 7 7 8 7 7 7 7 7 8 8 7 8 7 7 6 5 4 4 4 5 6 7 6 6 7 8 8 8 8 8 9 9 10 10 10 13 17 20 22 23 24 24 24 25 25 25 25 25 25 25 25 25 26 26 26 26 26 26 26 26 26 26 26 25 25 25 25 25 25 25
8 8 9 9 10 12 12 12 12 12 12 10 8 8 8 8 8 8 8 8 7 7 7 7 7 7 7 6 6 6 5 4 4 4 4 5 6 7 6 6 7 8 8 8 8 8 9 10 10 10 10 11 14 17 20 21 23 24 24 24 25 25 25 25 25 25 26 26 26 26 26 26 26 26 26 26 26 25 25 25 25 25 25 25 25 24
12 12 13 13 13 13 14 14 15 16 17 16 14 12 10 8 8 8 8 7 6 6 6 7 7 7 7 6 6 6 5 4 4 4 5 5 6 6 6 6 6 7 9 8 8 8 10 10 10 10 10 10 11 14 18 20 21 23 23 24 24 25 25 25 26 26 26 26 26 26 26 26 26 26 25 25 25 25 25 25 25 25 25 24 22 20
11 11 11 11 12 12 13 14 15 16 17 17 17 16 12 8 7 7 7 6 5 5 6 6 7 7 6 6 6 6 6 5 4 5 4 5 5 6 6 6 6 7 8 7 8 9 10 10 10 10 10 10 10 11 14 17 19 21 22 23 24 25 25 25 26 26 26 26 26 26 26 26 26 26 25 25 25 25 25 25 25 24 23 19 15 12
8 8 9 10 11 12 12 13 14 14 15 16 16 14 10 7 6 6 6 5 5 5 6 6 6 6 6 7 7 7 7 6 5 4 3 4 5 5 6 6 6 6 7 7 7 7 7 8 8 8 8 9 9 9 11 13 15 17 18 21 22 23 24 24 25 25 25 25 26 26 26 26 26 26 25 25 25 25 25 25 24 22 17 14 12 10
5 6 7 8 9 10 10 10 10 11 13 14 14 12 9 6 5 5 5 4 5 6 6 7 7 6 6 6 7 7 6 4 2 1 2 3 4 5 6 6 7 6 6 6 6 6 6 6 6 7 7 9 9 9 9 10 11 12 13 16 18 19 21 22 23 24 24 25 25 25 26 26 26 25 25 25 25 25 25 25 23 18 12 11 10 9
4 5 6 6 7 7 7 7 7 8 10 10 10 9 7 5 5 4 4 5 5 6 6 6 6 6 6 5 5 5 4 3 2 2 3 3 4 5 6 7 7 6 5 4 5 6 6 6 5 6 7 8 9 9 10 10 10 10 10 11 12 14 17 19 21 22 22 23 24 24 25 25 25 25 25 25 25 25 25 25 22 17 11 10 9 9
5 5 5 5 5 5 5 5 5 6 6 6 6 6 6 5 5 5 5 5 5 6 6 6 7 7 6 6 6 5 5 4 4 5 5 4 4 5 6 6 7 7 5 5 5 6 6 6 6 6 7 8 9 9 10 10 10 10 10 10 10 12 15 17 18 18 18 20 21 22 23 24 24 24 24 24 24 24 24 25 22 18 12 10 9 9
6 5 5 5 5 4 4 4 5 5 5 5 5 5 5 5 6 6 5 5 5 5 6 6 7 7 7 7 7 7 6 6 6 7 7 5 4 5 5 6 7 7 6 6 6 6 6 7 7 7 8 8 8 9 9 10 10 10 10 10 10 11 13 13 14 14 14 16 17 18 20 21 22 23 23 23 24 24 24 24 22 19 14 11 9 10
6 6 6 5 5 4 4 4 5 5 5 5 5 5 4 5 5 5 6 5 5 5 6 6 7 7 7 7 8 8 8 7 7 7 7 5 5 5 6 7 7 7 7 6 6 6 6 8 8 8 8 8 8 8 9 9 10 10 9 9 9 10 10 11 11 11 12 12 13 13 14 16 17 18 20 20 21 21 22 22 22 21 19 14 11 10
6 6 6 5 5 5 4 4 4 4 5 5 5 5 5 5 5 5 5 6 6 6 6 6 6 7 7 7 8 8 8 8 7 8 7 6 5 5 6 7 7 7 7 7 7 6 6 8 9 9 9 9 8 8 8 8 9 9 9 9 9 9 10 10 10 10 11 11 11 11 11 11 12 13 14 16 18 19 20 21 22 22 22 19 16 13
5 5 5 5 5 5 5 5 5 5 5 5 5 5 5 5 5 5 5 6 6 6 7 7 7 7 7 7 8 9 9 9 9 9 8 7 6 6 6 6 7 7 8 8 7 7 7 8 10 10 10 10 9 8 7 8 8 8 9 9 9 10 10 10 10 10 10 11 11 11 10 10 10 11 12 15 18 19 21 21 22 22 22 22 21 19
5 5 5 5 5 5 5 5 5 5 5 5 5 5 5 5 6 6 6 6 6 7 7 8 8 8 9 9 9 10 10 10 10 10 11 9 8 7 7 7 8 8 8 8 8 8 8 9 10 10 10 9 9 8 8 8 9 9 9 9 9 10 10 10 10 10 10 11 11 11 11 11 11 11 12 15 17 18 19 20 21 21 22 22 22 22
5 5 5 5 5 5 5 5 5 5 5 5 5 5 6 6 7 7 7 7 7 8 8 8 8 9 12 12 12 12 12 13 14 14 13 11 9 8 8 8 9 9 8 8 8 9 9 9 10 10 9 9 9 10 10 10 10 10 10 10 10 10 10 10 10 10 10 10 11 11 12 11 11 11 11 12 12 12 13 13 14 16 18 18 19 20
5 5 5 5 5 5 5 5 5 5 5 5 6 6 6 7 8 8 7 7 8 8 9 8 8 9 11 12 13 14 15 15 14 14 13 12 10 9 9 9 9 9 9 9 8 9 9 9 9 9 9 9 10 10 10 10 10 11 11 10 10 10 10 10 10 9 9 10 11 12 11 11 11 10 10 10 10 10 10 10 11 12 12 12 13 15
5 5 5 5 5 5 5 5 5 5 6 6 7 7 7 7 7 7 7 7 8 8 9 9 9 9 9 10 11 12 13 12 12 12 11 11 10 9 9 9 9 9 9 9 8 9 9 9 10 10 10 9 10 10 10 10 11 11 12 10 9 9 10 10 10 10 10 10 10 11 11 10 10 10 10 10 10 10 10 9 9 10 10 9 9 10
5 5 5 5 5 5 5 5 6 6 6 6 6 6 6 6 6 6 6 7 7 7 7 8 8 8 9 9 10 11 11 11 11 12 10 11 11 10 9 9 9 9 9 9 9 9 9 10 10 11 10 10 11 11 12 12 13 14 14 12 11 11 11 11 11 10 10 10 10 10 10 11 11 11 10 10 10 10 10 10 10 10 10 9 9 9
5 5 5 5 5 5 5 6 6 7 7 6 6 6 6 6 6 6 6 6 6 6 6 6 7 7 8 8 8 9 9 9 10 10 11 11 11 11 10 10 9 9 9 9 10 10 10 10 10 11 10 10 10 11 11 12 13 13 13 12 12 12 12 12 11 9 9 9 9 10 11 11 11 11 11 11 10 10 10 11 12 12 11 10 10 9
5 5 5 5 5 6 6 6 6 6 6 6 6 6 6 5 6 6 7 7 7 7 6 6 7 7 8 8 8 8 7 7 8 9 10 10 10 11 11 11 10 9 8 9 10 10 11 11 11 11 11 10 10 11 12 13 13 13 13 13 12 11 8 8 8 9 9 10 10 10 10 10 10 10 10 10 10 10 10 11 13 13 13 11 11 10
5 5 5 5 5 5 6 5 5 5 6 6 6 6 6 6 6 7 7 6 7 7 7 6 6 7 8 9 9 8 8 7 7 8 8 9 10 10 10 11 11 10 10 9 9 10 10 10 11 11 10 10 10 11 12 12 13 13 12 13 12 11 10 9 10 10 10 10 10 10 11 11 11 10 10 10 10 10 10 10 10 11 12 12 11 11
5 5 5 5 5 5 5 6 6 6 6 6 6 7 6 6 6 7 6 7 7 7 7 6 6 6 7 8 8 8 8 8 7 7 7 8 10 11 10 10 10 10 10 10 10 10 9 10 10 10 10 9 10 11 12 13 13 13 13 13 13 12 12 12 11 11 11 11 11 11 12 11 11 10 10 10 10 10 10 10 10 11 11 11 11 11
5 5 5 5 5 6 6 6 6 6 6 7 7 7 6 6 6 6 7 7 7 7 7 6 6 6 7 8 8 8 8 9 8 7 7 7 7 8 8 8 8 9 9 9 10 10 10 10 11 11 10 10 11 12 13 13 13 13 13 13 12 12 12 12 11 11 11 11 12 12 12 12 11 11 10 11 11 11 10 10 11 11 11 11 11 11
5 5 5 5 5 6 6 6 6 6 7 7 7 7 6 6 6 6 6 6 7 7 7 6 6 7 8 8 8 8 9 10 10 9 8 8 8 7 7 7 8 9 9 9 10 11 11 11 11 11 10 10 11 12 12 12 12 12 12 12 12 11 11 11 11 11 11 11 12 12 12 11 11 11 11 11 11 11 10 10 11 11 11 11 11 11
5 5 6 6 6 6 6 6 6 6 7 7 7 7 6 6 7 7 6 6 6 6 7 6 7 7 8 8 8 9 9 10 10 10 10 9 9 8 7 7 7 8 9 10 11 12 12 12 12 12 11 11 11 12 13 12 12 12 12 11 11 11 11 12 11 11 11 11 12 12 11 10 10 11 11 11 11 10 10 10 10 10 10 10 10 11
5 5 6 6 6 6 6 6 6 7 7 7 7 7 6 7 7 8 6 6 6 6 6 7 7 8 8 8 9 9 10 10 10 10 10 9 9 8 8 8 8 8 8 9 10 10 11 12 13 13 13 12 12 13 13 13 12 12 11 11 11 11 11 11 11 11 11 11 11 11 11 10 10 10 11 11 11 12 12 11 11 10 10 10 10 10
5 5 6 6 6 7 7 7 7 7 7 7 7 7 7 7 6 6 6 6 6 6 6 7 8 8 9 9 9 9 9 9 9 9 9 9 8 8 8 8 9 9 9 9 8 9 9 9 10 11 13 13 13 13 13 13 12 12 11 11 10 10 11 11 11 10 10 11 11 11 11 10 10 10 10 11 12 13 12 11 11 10 9 9 10 10
6 6 6 6 6 7 7 7 7 7 7 8 8 8 7 7 7 6 6 6 6 7 7 7 8 8 9 9 9 10 10 9 10 10 10 9 8 8 9 9 9 9 9 8 8 8 8 8 8 8 9 12 13 13 11 12 12 11 11 11 10 10 10 10 10 10 11 11 10 10 10 10 10 10 9 10 11 12 12 12 11 10 10 9 9 10
Wind_Direction
228 186 120 136 190 260 261 241 264 282 289 292 294 295 295 296 296 296 297 298 299 300 300 300 300 300 299 297 297 297 298 298 299 299 299 300 300 301 301 300 300 299 298 297 296 295 294 293 292 292 291 290 289 289 288 288 288 288 288 289 289 289 289 289 289 289 289 289 289 289 289 289 289 289 288 288 287 287 286 285 284 284 283 283 282 282
203 164 118 132 184 261 279 254 251 265 281 288 292 294 296 297 297 297 298 298 298 299 300 301 300 300 298 296 295 295 296 297 298 299 300 300 301 301 301 301 300 299 298 297 296 295 294 293 292 291 290 290 289 289 288 288 288 289 289 289 289 289 289 289 289 289 289 289 289 289 289 288 288 287 287 286 285 284 284 283 282 282 281 281 281 281
127 112 124 134 177 246 277 267 256 256 268 279 285 290 294 295 296 297 300 301 302 302 301 301 299 298 297 295 294 294 295 297 298 299 300 301 302 302 302 301 300 299 298 297 296 295 293 292 292 291 290 290 289 289 288 288 289 289 289 289 289 289 289 289 289 289 289 289 288 288 287 287 286 286 285 284 284 283 282 282 282 281 281 281 281 281
15 297 259 173 214 243 261 267 265 262 263 273 280 284 287 289 291 294 298 301 302 301 299 298 297 296 294 293 292 293 295 297 299 300 301 302 302 302 302 301 300 299 298 297 296 295 294 293 292 291 290 290 289 289 289 289 289 289 289 289 290 290 290 290 290 289 289 288 288 287 286 286 285 284 284 283 282 282 282 281 281 281 281 280 280 280
207 247 250 251 256 254 250 256 260 263 266 270 274 277 278 282 288 293 297 298 299 299 299 298 296 294 292 291 292 294 296 298 300 301 302 301 301 301 300 299 299 298 297 296 295 294 294 293 292 291 291 290 290 289 290 290 290 290 290 291 291 291 291 291 291 290 290 289 288 287 287 286 285 284 283 282 282 281 281 280 280 280 279 279 279 278
258 237 244 259 268 271 267 257 257 262 269 271 275 278 281 285 289 292 295 297 298 298 298 297 295 293 290 288 291 294 297 299 300 300 300 300 299 298 298 297 297 296 296 295 294 294 293 292 292 291 291 290 290 290 291 291 291 292 292 292 292 292 292 292 291 291 290 289 288 288 286 285 284 283 282 281 281 280 280 279 279 278 278 277 276 276
273 251 247 259 267 269 271 262 258 263 277 286 291 292 292 292 292 292 293 294 295 296 296 294 292 290 288 289 292 295 298 299 299 299 298 297 296 295 295 295 295 294 294 294 293 293 292 292 291 291 291 291 291 291 292 292 292 293 293 293 293 293 293 292 292 291 290 289 288 287 285 284 283 282 281 280 279 279 278 278 277 276 276 275 274 274
272 266 255 262 267 268 266 259 257 264 282 296 300 301 300 298 295 294 293 291 290 291 293 293 293 293 293 295 297 298 299 299 298 297 296 295 294 293 293 293 293 294 293 293 293 292 292 292 292 292 292 292 292 292 292 293 293 293 293 294 294 293 293 292 291 290 289 288 287 285 284 283 282 281 279 278 277 277 276 275 275 275 274 274 273 273
269 271 266 260 265 273 278 273 273 278 288 293 296 299 301 301 300 299 296 292 289 290 294 298 300 300 300 301 300 299 297 295 294 294 293 293 294 294 294 294 294 294 294 294 293 293 293 293 292 293 292 292 292 292 293 293 293 293 293 293 293 293 292 291 290 289 288 287 286 284 283 282 280 279 278 276 275 275 274 273 273 273 273 273 273 272
259 264 268 261 262 270 284 290 292 292 289 285 285 287 292 298 302 303 303 302 301 300 299 302 303 303 303 302 301 299 296 293 291 290 289 290 290 292 293 293 294 294 294 294 294 293 293 293 293 293 292 292 292 292 292 292 292 292 293 292 292 292 291 290 289 288 287 286 284 283 282 280 279 278 276 275 274 273 273 272 272 272 272 273 273 273
254 256 264 268 269 271 277 286 291 290 282 275 270 269 269 286 299 306 309 309 309 308 305 304 303 303 303 302 301 299 297 294 291 289 288 288 288 289 290 290 291 291 292 293 293 293 292 292 292 292 292 291 291 291 291 291 291 292 292 292 291 291 290 289 288 287 286 284 283 282 280 279 278 277 276 275 275 274 273 273 272 272 273 273 273 273
259 261 267 275 278 279 275 278 280 280 274 272 276 280 280 291 302 308 308 308 308 309 308 305 302 300 298 298 298 297 295 294 293 292 290 289 289 289 289 289 290 291 291 291 291 291 291 291 291 291 291 290 290 290 291 291 291 291 291 290 290 289 288 287 286 284 284 283 282 281 280 279 279 278 277 277 276 275 275 274 274 274 273 273 273 274
256 262 268 275 278 281 282 285 285 285 285 291 298 304 306 310 311 308 303 302 303 304 305 303 300 296 292 290 290 291 291 291 292 292 293 293 293 293 293 293 293 293 293 293 292 292 292 292 292 291 291 290 290 290 291 290 290 290 290 289 288 287 286 285 284 284 283 283 282 282 281 281 280 279 279 278 278 277 276 275 275 274 274 274 274 274
258 263 269 275 279 283 286 289 292 295 298 302 303 305 306 309 307 304 298 296 297 299 300 299 296 294 290 285 283 282 285 288 291 293 295 296 299 300 300 299 298 298 298 296 294 293 294 295 293 292 291 291 290 290 290 290 289 288 288 287 287 286 286 285 285 285 285 284 284 283 283 282 281 281 280 279 279 278 277 277 276 275 275 274 274 273
263 272 278 282 284 286 287 291 293 296 299 303 304 305 306 305 303 299 295 295 297 298 298 294 291 289 286 284 281 280 282 288 294 298 299 300 302 303 304 302 300 298 297 294 293 293 295 294 293 291 290 289 288 288 289 289 288 288 288 287 287 287 287 287 287 286 286 286 285 284 283 283 282 281 281 280 280 279 278 278 277 276 275 275 274 274
270 276 280 282 284 285 289 294 297 299 301 304 305 306 306 302 299 295 293 295 297 298 295 293 291 290 285 284 284 285 288 294 298 301 302 301 302 304 305 302 299 296 294 293 292 292 293 291 289 288 287 287 287 287 288 288 288 288 288 288 288 288 288 288 288 287 287 286 286 285 284 284 283 282 282 281 281 280 279 279 278 277 276 276 275 274
273 275 278 283 286 290 296 297 297 299 302 304 304 303 301 297 294 293 292 292 292 291 287 289 292 295 296 295 295 297 302 303 303 303 302 300 301 302 303 299 296 294 292 290 289 290 291 289 287 285 285 285 286 287 288 288 288 289 289 289 289 289 288 288 288 287 287 287 286 286 285 285 284 284 283 283 282 281 281 280 279 278 278 277 276 275
270 275 280 286 290 295 301 300 300 300 300 302 300 297 289 286 287 288 286 284 283 283 283 285 288 292 297 299 302 310 318 314 310 306 302 298 297 298 299 295 291 289 288 286 286 287 287 285 284 284 284 285 286 287 288 288 288 288 288 288 288 288 288 288 288 288 288 287 287 287 287 286 285 285 284 284 283 282 282 281 280 279 278 278 277 276
277 278 283 288 292 296 297 296 297 298 300 299 298 294 288 286 285 284 281 278 276 276 279 282 284 285 289 291 298 309 320 317 311 305 299 296 296 296 296 291 287 284 284 284 284 285 284 283 283 283 283 285 286 286 287 287 287 287 287 288 288 288 288 288 288 288 288 288 288 288 287 287 286 286 285 285 284 283 282 282 281 280 279 278 277 276
287 282 283 289 292 292 290 290 292 294 294 294 293 292 291 289 284 279 275 273 272 271 273 276 279 282 286 290 297 305 315 314 308 301 295 293 292 292 292 288 285 283 282 282 283 284 284 283 283 283 283 284 285 286 286 287 287 287 287 287 288 288 288 288 288 288 288 288 288 288 288 288 287 286 286 285 284 284 283 282 281 281 280 279 278 277
289 286 286 288 289 289 287 289 290 291 291 291 290 288 285 282 277 273 272 274 276 275 272 272 277 284 292 295 297 302 310 309 304 297 293 290 288 287 288 285 283 282 282 282 283 283 284 283 283 283 283 285 285 286 286 287 287 288 288 288 288 288 288 289 289 289 289 289 289 289 288 288 287 287 286 285 284 284 283 283 282 282 281 281 280 279
287 286 286 286 285 285 287 291 293 292 291 287 282 277 274 274 274 276 279 281 282 281 279 282 288 294 297 294 294 296 301 298 295 292 292 287 285 284 285 282 281 281 281 283 284 285 284 284 283 284 284 285 286 287 287 288 288 288 289 289 289 289 289 289 290 290 290 289 289 289 288 288 287 286 286 285 285 285 284 284 284 284 283 282 282 281
284 286 291 289 287 286 289 292 291 288 283 276 270 266 265 268 272 277 281 284 287 290 291 293 294 293 289 287 288 290 291 288 285 283 282 281 281 283 286 286 284 282 281 285 287 288 287 285 284 284 285 286 286 287 288 289 289 290 290 290 290 290 290 290 290 290 289 289 289 288 288 288 288 287 287 287 287 287 286 286 285 285 284 283 282 281
281 284 286 284 282 282 282 281 278 273 268 263 261 260 261 264 271 278 284 290 292 293 292 292 290 287 284 284 285 286 286 284 280 276 274 277 281 285 290 290 287 285 284 286 289 290 289 286 285 284 285 286 287 288 289 290 290 291 291 291 291 291 291 290 290 290 289 289 289 289 289 289 289 289 289 289 288 288 287 286 285 285 284 283 282 280
281 280 279 278 277 275 275 273 274 276 278 276 279 285 290 293 294 294 293 292 291 291 291 291 289 287 286 288 287 286 287 283 276 271 270 275 279 283 287 290 289 287 287 288 289 289 288 287 287 286 286 287 288 289 289 290 291 291 292 292 292 291 291 291 291 290 290 290 290 290 290 290 290 289 289 288 288 287 286 286 285 284 283 282 281 280
293 291 291 290 289 289 291 293 296 300 304 305 307 307 306 304 301 297 292 290 291 293 294 291 288 286 288 288 287 286 287 282 274 267 266 274 280 283 288 289 287 287 288 290 291 291 291 290 289 289 289 288 288 289 289 290 290 291 291 291 291 291 292 292 292 292 291 291 291 290 289 289 288 288 287 287 287 286 286 285 284 284 283 282 281 280
300 298 297 298 299 302 305 306 307 306 306 304 303 301 300 299 295 290 286 288 291 294 291 287 286 287 289 287 285 286 290 288 278 269 266 272 279 283 287 288 289 289 291 292 293 293 292 291 291 290 288 288 288 288 288 288 289 290 290 291 292 292 292 292 292 292 291 290 290 289 288 288 287 287 286 286 286 285 285 285 285 284 284 284 282 280
302 302 303 305 306 307 307 305 304 302 301 299 298 297 295 292 286 282 280 286 290 290 284 282 284 287 288 287 288 289 290 285 278 271 269 271 274 279 285 291 293 294 294 294 293 292 290 287 286 286 285 285 286 286 287 289 290 290 291 291 291 291 291 291 291 290 290 289 289 288 288 288 287 287 286 286 286 286 285 285 285 285 285 284 282 280
305 307 308 307 306 305 304 302 300 297 295 294 294 294 291 284 278 276 280 287 289 284 279 278 279 281 284 286 288 287 285 279 275 272 271 272 274 279 288 294 297 298 299 297 295 290 284 281 282 283 285 288 290 291 291 292 292 291 291 290 289 289 289 289 289 289 289 289 289 288 288 288 287 287 287 286 286 286 286 286 287 286 285 283 281 278
310 309 305 301 300 299 298 295 292 290 289 289 290 290 287 281 276 275 280 283 280 276 274 275 276 277 281 286 287 286 281 276 271 267 273 276 279 285 294 297 299 300 303 303 300 294 287 283 283 287 292 294 295 295 294 293 292 290 289 288 288 287 287 288 288 288 288 288 288 288 288 288 287 287 287 287 287 287 287 287 287 286 284 281 279 276
300 297 293 292 291 289 287 284 282 282 283 286 287 287 285 279 273 269 268 267 266 267 269 272 273 275 278 283 285 285 283 285 291 301 302 288 286 290 298 297 297 297 301 301 301 300 299 295 293 294 298 298 296 294 291 290 289 289 288 288 287 286 286 287 287 288 288 288 288 288 288 288 288 288 287 287 287 287 286 286 286 286 283 280 277 275
292 290 290 289 287 282 277 276 275 276 278 280 280 278 275 271 267 262 259 258 258 261 265 268 271 273 274 273 274 276 280 288 298 303 303 293 287 288 294 293 294 294 296 289 287 290 296 299 302 303 301 297 294 291 289 288 287 287 287 287 286 285 286 287 288 288 288 288 288 288 288 288 287 287 287 286 286 285 285 285 285 284 281 279 276 274
296 294 292 290 286 280 273 272 272 272 273 272 270 267 265 263 262 261 260 258 258 260 263 268 271 273 273 271 270 270 273 280 288 293 295 290 287 287 291 291 292 293 293 286 280 277 280 288 295 299 298 294 291 290 289 288 287 285 285 285 285 285 287 288 288 288 288 288 288 288 288 287 287 286 285 285 284 284 283 283 282 281 279 276 274 272
299 297 295 292 287 281 275 272 271 270 270 269 267 265 264 264 265 266 267 266 264 263 264 267 270 273 274 273 272 271 272 275 282 289 294 291 287 286 290 291 292 292 293 289 284 281 277 281 287 293 295 293 291 289 289 288 287 286 284 284 284 285 287 288 288 288 287 288 287 287 286 286 285 284 283 283 282 281 281 281 280 279 277 274 272 270
298 296 295 293 289 285 282 278 275 275 274 275 276 277 277 277 277 276 274 273 271 268 265 264 265 267 269 272 274 275 276 279 286 292 295 290 287 287 289 288 289 291 292 289 288 286 283 284 286 289 293 293 292 289 287 287 287 287 285 284 284 284 285 286 286 286 286 286 285 284 283 283 282 282 281 280 279 279 279 279 278 278 276 274 272 270
298 297 296 294 293 292 291 291 291 292 292 291 290 289 288 287 284 282 279 277 275 273 270 267 265 264 264 266 269 272 277 282 287 291 291 288 287 286 286 285 287 288 288 286 285 284 284 285 287 287 289 290 291 291 289 290 290 290 289 287 285 284 284 283 283 284 284 283 282 281 281 280 280 279 278 278 278 278 279 279 278 278 277 275 274 272
294 295 295 296 297 298 300 300 302 301 300 297 295 293 292 290 288 286 283 279 277 275 273 271 268 265 262 262 264 268 274 280 284 285 285 284 282 280 279 280 282 282 281 282 283 284 284 285 286 286 285 285 288 292 296 298 297 294 290 290 289 287 285 284 282 281 280 279 278 278 278 278 278 278 278 278 278 279 279 279 278 277 277 276 274 273
294 296 299 300 301 301 301 302 301 301 300 299 298 297 296 293 291 289 286 282 277 273 270 269 267 266 264 263 263 265 269 273 276 277 277 276 274 272 272 275 276 276 274 275 278 280 282 284 286 287 286 284 285 289 294 297 297 295 293 292 290 288 286 284 281 278 276 276 277 277 278 278 279 279 279 279 279 279 278 278 276 276 276 275 273 272
292 295 299 300 302 302 302 302 301 301 301 300 299 298 297 294 291 289 286 283 279 275 272 271 270 268 265 263 263 263 265 267 268 268 269 267 265 265 267 271 273 274 272 271 272 274 276 277 280 282 285 287 289 289 291 292 292 293 295 294 291 286 283 283 282 281 280 280 280 280 280 279 278 278 277 277 276 275 274 274 273 273 273 273 272 271
294 296 298 300 302 303 301 301 302 302 301 299 298 297 295 293 291 289 285 283 280 278 276 274 273 271 268 266 265 264 264 264 263 263 263 260 258 259 262 265 269 272 273 271 268 267 268 271 273 275 278 282 286 289 290 289 289 291 295 295 292 289 288 289 289 287 285 282 280 279 279 277 276 275 274 273 272 270 269 270 270 270 270 270 271 271
297 297 298 301 302 301 298 299 299 299 298 296 295 294 293 292 291 290 288 285 282 280 279 278 277 276 275 272 270 269 267 265 263 262 260 256 254 254 257 260 264 268 270 270 268 266 266 268 271 273 274 277 280 282 283 283 285 288 291 289 288 288 291 291 289 286 282 279 276 276 276 277 277 275 274 272 270 268 267 267 268 269 268 265 264 265
296 297 300 301 301 299 298 296 295 294 293 293 292 291 290 291 291 292 292 291 289 288 287 287 287 287 286 283 279 273 267 263 259 257 256 253 251 251 253 255 258 262 266 268 268 267 266 267 269 271 272 275 277 279 280 281 283 284 284 284 286 288 290 286 283 281 281 280 280 280 279 279 278 277 275 274 272 270 268 267 266 266 265 263 261 259
296 297 298 297 296 294 293 293 293 293 293 291 289 288 287 289 290 291 292 292 292 293 293 293 294 294 294 292 289 284 276 265 259 257 256 252 250 249 251 253 254 257 260 264 267 268 268 267 266 267 269 271 272 274 277 280 282 282 281 281 284 287 288 286 286 286 286 284 283 282 280 278 277 276 275 274 273 271 269 266 264 263 261 261 260 258
293 293 293 292 291 290 291 293 293 293 292 289 288 287 287 287 288 288 289 289 291 293 296 297 296 295 292 291 293 294 295 288 277 266 260 256 253 251 253 254 255 255 255 258 264 269 272 270 267 266 267 269 269 271 274 277 279 280 280 279 279 278 277 283 288 290 287 283 280 278 276 276 277 277 277 274 272 270 267 265 262 260 258 257 256 255
289 290 290 291 292 293 294 294 293 293 291 289 288 287 286 287 287 287 288 289 291 293 295 297 297 295 293 294 297 300 301 300 295 287 274 266 262 261 260 259 259 259 257 256 259 263 268 271 272 272 271 269 268 268 270 274 276 277 278 278 277 275 273 277 280 282 281 280 279 278 277 277 278 278 277 274 271 268 266 264 262 260 257 254 252 251
287 288 289 292 293 294 293 293 293 292 289 286 285 285 285 286 286 285 285 288 290 292 292 294 293 292 292 296 299 301 302 302 301 299 295 286 277 270 266 264 263 262 261 259 258 258 259 264 269 273 275 272 269 267 266 269 272 275 277 277 277 277 276 276 276 276 276 277 278 278 278 279 278 277 275 274 272 270 267 265 262 261 259 255 252 250
288 290 292 293 293 292 291 291 291 289 288 287 287 287 287 287 287 286 285 286 287 289 291 291 289 286 287 291 294 297 299 300 301 301 301 299 295 289 283 277 272 268 266 265 263 261 259 259 262 265 269 271 271 270 269 268 269 271 274 276 277 277 277 276 276 275 274 274 275 276 278 279 277 275 273 273 273 272 269 267 264 262 259 256 253 251
291 293 294 295 294 293 292 291 290 289 288 288 288 288 288 289 289 289 288 289 289 290 292 291 288 285 284 285 287 289 292 294 297 299 301 301 300 298 294 291 285 280 275 273 270 268 265 262 259 258 259 263 267 270 272 270 269 269 271 274 275 275 275 275 275 275 273 272 271 271 272 273 273 273 274 274 274 273 272 271 268 265 261 258 256 254
294 294 293 293 292 291 290 290 290 289 289 289 290 290 291 291 291 291 291 291 290 289 287 286 285 285 285 285 286 287 288 289 291 294 296 298 300 300 300 299 296 292 287 283 279 275 272 266 260 254 250 251 257 263 269 270 270 269 270 271 271 272 273 274 275 275 275 273 271 268 266 266 267 269 272 274 275 275 276 274 272 268 264 260 257 255
292 291 290 290 289 289 289 290 291 291 291 292 293 293 294 293 292 291 289 288 286 284 281 281 282 283 284 286 287 288 288 289 289 290 292 295 298 300 301 301 301 300 297 293 290 287 284 278 266 255 246 244 247 254 263 268 271 271 271 270 270 271 273 275 277 278 278 277 276 273 269 268 267 267 268 271 274 276 278 277 275 272 268 264 260 257
293 291 289 288 288 289 290 291 292 291 292 292 293 293 294 294 293 291 289 287 285 283 281 279 279 279 281 284 285 286 286 286 287 288 290 293 296 298 298 299 300 300 300 299 298 298 297 295 289 278 262 251 247 249 258 266 272 275 275 274 274 275 276 278 279 281 281 281 280 278 275 273 271 269 268 270 274 277 280 279 278 276 274 271 268 264